Location: Palomar Mountain Lodge
(33.3110°N, 116.8495°W)
Time: 15:25:10
(UTC-07:00)

CZ-4B DEB - Pass Details

Date: 19 May 2017
Orbit: 375 x 378 km, 97.4° (Epoch: 23 June)

Event Time Altitude Azimuth Distance (km) Brightness Sun altitude
Rises 10:28:13 0° 349° (N) 2,271 6.3 57.0°
Reaches altitude 10° 10:30:47 10° 324° (NW) 1,415 5.3 57.6°
Drops below altitude 10° 10:34:16 10° 253° (WSW) 1,412 5.3 58.3°
Enters shadow 11:02:41 -58° 192° (SSW) 11,248 9.5 63.8°
Exits shadow 11:35:13 -54° 34° (NNE) 10,743 9.4 69.7°
Maximum altitude 20:50:21 43° 76° (ENE) 536 3.0 -12.9°
